Track METEOR M2-2 now! 10-day predictions METEOR M2-2 is classified as:
1 44387U 19038A 21058.20287678 -.00000012 00000-0 14029-4 0 9997 2 44387 98.6555 19.6565 0000994 153.2566 206.8668 14.23685973 85780